Regional Weather Roundup
Issued by NWS

Home | Current Version | Previous Version | Graphics & Text | Print | Product List | Glossary Off
Versions: 1 2 3 4 5 6 7 8 9 10 11 12 13 14 15 16 17 18 19 20 21 22 23 24 25 26 27 28 29 30 31 32 33 34 35 36 37 38 39 40 41 42 43 44 45 46 47 48 49 50

308
ASUS43 KMPX 280310
RWRMN
WEATHER ROUNDUP FOR MINNESOTA
NATIONAL WEATHER SERVICE TWIN CITIES/CHANHASSEN MN
1000 PM CDT THU JUL 27 2017


NOTE: "FAIR" INDICATES FEW OR NO CLOUDS BELOW 12,000 FEET WITH NO
SIGNIFICANT WEATHER AND/OR OBSTRUCTIONS TO VISIBILITY. N/A MEANS
CURRENT SKY AND/OR WEATHER CONDITIONS ARE NOT AVAILABLE.

MNZ060>063-068>070-280400-
   Twin Cities Metro

CITY           SKY/WX    TMP DP  RH WIND       PRES   REMARKS
TWIN CITIES    PTCLDY    76  58  53 NE6       30.03R
ST PAUL        CLEAR     74  62  66 NE5       30.03R
CRYSTAL        CLEAR     75  57  53 NE5       30.03R
LAKEVILLE      CLEAR     64  64 100 CALM      30.04R
EDEN PRAIRIE   CLEAR     75  59  57 N3        30.03R
SOUTH ST PAUL  CLEAR     76  58  53 CALM      30.03R
LAKE ELMO      FAIR      68  63  83 CALM      30.05R
$$
MNZ001>005-007-008-013>017-022>024-027-028-280400-
   Northwest Minnesota

CITY           SKY/WX    TMP DP  RH WIND       PRES   REMARKS
BEMIDJI        CLEAR     64  56  75 CALM      30.09R
HALLOCK        CLEAR     68  64  88 CALM      30.05R
ROSEAU         PTCLDY    68  63  83 CALM      30.07R
WARROAD        CLEAR     66  63  88 CALM      30.07S
THIEF RVR FALL CLEAR     69  62  78 CALM      30.08R
CROOKSTON      CLEAR     70  63  78 CALM      30.06R
FOSSTON        CLEAR     63  57  82 CALM      30.09R
DETROIT LAKES  PTCLDY    70  63  78 NE3       30.09R
MOORHEAD       PTCLDY    72  61  68 CALM      30.07R
PARK RAPIDS    CLEAR     72  59  63 CALM      30.08R
MAHNOMEN       FAIR      69  62  77 CALM      30.08R
$$
MNZ006-009>011-018-025>026-280400-
   North Central Minnesota

CITY           SKY/WX    TMP DP  RH WIND       PRES   REMARKS
BAUDETTE       CLEAR     66  63  90 CALM      30.06S
FLAG ISLAND    CLEAR     73  63  68 CALM      30.05S
INTL FALLS     CLEAR     62  57  83 CALM      30.07R
WASKISH        CLEAR     64  63  94 SW3       30.08R
BIG FORK       CLEAR     63  61  94 CALM      30.08R
LONGVILLE      CLEAR     63  61  94 CALM      30.08R
GRAND RAPIDS   CLEAR     63  62  97 CALM      30.09R
CRANE LAKE     CLEAR     59  57  94 CALM      30.09R
ORR            CLEAR     64  55  72 CALM      30.06
COOK             N/A     64  61  88 SE3       30.09R
WALKER         FAIR      63  60  88 CALM      30.08R
$$
MNZ012-019>021-037-280400-
   Northeast Minnesota

CITY           SKY/WX    TMP DP  RH WIND       PRES   REMARKS
DULUTH         MOCLDY    60  59  96 W5        30.08S
ELY            CLEAR     61  59  94 CALM      30.09R
HIBBING        PTCLDY    63  56  78 S3        30.09R
EVELETH        PTCLDY    63  54  73 CALM      30.10S
DULUTH HARBOR  CLOUDY    64  63  94 CALM      30.07R
TWO HARBORS    CLEAR     61  55  82 CALM      30.07R HAZE
GRAND MARAIS     N/A     60  56  86 W6        30.07S
G MARAIS ARPRT CLOUDY    59  52  77 CALM      30.12S
$$
MNZ029>031-032-039>041-046>048-054>057-064-280400-
   West Central Minnesota

CITY           SKY/WX    TMP DP  RH WIND       PRES   REMARKS
FERGUS FALLS   PTCLDY    72  63  73 CALM      30.06R
WHEATON        PTCLDY    70  61  73 CALM      30.07R
MORRIS         PTCLDY    70  63  78 NE5       30.05S
ALEXANDRIA     CLEAR     72  62  71 CALM      30.08S
ELBOW LAKE     FAIR      73  67  82 CALM      30.07R
WADENA         CLEAR     66  61  82 CALM      30.07S
GLENWOOD       CLEAR     72  61  68 N5        30.08R
APPLETON       PTCLDY    70  63  78 N3        30.05R
BENSON         PTCLDY    66  61  82 CALM      30.07S
ORTONVILLE     PTCLDY    72  63  73 NE3         N/A
MADISON        PTCLDY    72  64  78 NE3       30.05S HAZE
WILLMAR        FAIR      72  63  73 NE3       30.07R
$$
MNZ033>034-036-042>043-049>051-058-059-280400-
   Central Minnesota

CITY           SKY/WX    TMP DP  RH WIND       PRES   REMARKS
ST CLOUD       CLEAR     67  64  90 CALM      30.05R
SAUK CENTRE    FAIR      68  64  87 CALM      30.07R
PAYNESVILLE    CLEAR     68  61  77 CALM      30.07R
AITKIN         CLEAR     61  59  94 CALM      30.07R FOG
PINE RIVER     CLEAR     64  61  88 MISG      30.11R
BRAINERD       CLEAR     66  63  90 CALM      30.07R
STAPLES        CLEAR     66  61  82 CALM      30.07S
LONG PRAIRIE   FAIR      68  64  88 CALM      30.07S
LITTLE FALLS   CLEAR     64  61  88 CALM      30.06S
LITCHFIELD     CLEAR     75  63  64 CALM      30.06S
BUFFALO        CLEAR     71  60  66 CALM      30.06R
MAPLE LAKE     CLEAR     69  64  83 CALM      30.06R
HUTCHINSON     CLEAR     69  65  86 CALM      30.06R
$$
MNZ037-044-045-052-053-280400-
   East Central Minnesota

CITY           SKY/WX    TMP DP  RH WIND       PRES   REMARKS
PRINCETON      CLEAR     66  63  88 CALM      30.05S
MORA           PTCLDY    68  61  77 CALM      30.08R
CAMBRIDGE      CLEAR     70  59  68 CALM      30.04R
RUSH CITY      CLOUDY    73  59  61 NE5       30.06R
MOOSE LAKE     PTCLDY    64  55  72 NE3       30.08R
HINCKLEY       MOCLDY    70  63  78 E5        30.07R
CLOQUET        MOCLDY    66  54  63 E3        30.09F
MCGREGOR       PTCLDY    66  63  88 E6G17     30.09R
$$
MNZ071>073-080-081-089-090-097-098-280400-
   Southwest Minnesota

CITY           SKY/WX    TMP DP  RH WIND       PRES   REMARKS
MONTEVIDEO     PTCLDY    70  59  68 CALM      30.06R
CANBY          CLEAR     70  64  81 CALM      30.07R
MARSHALL       PTCLDY    70  65  84 CALM      30.06R
REDWOOD FALLS  CLEAR     73  62  68 CALM      30.04S
OLIVIA         PTCLDY    70  64  83 CALM      30.05R
PIPESTONE      CLEAR     72  61  68 CALM      30.08R
WINDOM         CLEAR     66  63  88 CALM      30.07R
WORTHINGTON    CLEAR     68  61  78 N6        30.08R
JACKSON        CLEAR     66  61  82 CALM      30.07R
TRACY          CLOUDY    71  65  83 CALM      30.07R
SLAYTON        HVY RAIN  68  61  78 CALM      30.08S
$$
MNZ065>067-074>077-082>085-091>093-280400-
   South Central Minnesota

CITY           SKY/WX    TMP DP  RH WIND       PRES   REMARKS
MANKATO        CLEAR     72  64  76 NE5       30.04R
NEW ULM        CLEAR     72  63  73 CALM      30.04S
ST JAMES       CLEAR     68  64  88 CALM      30.05S
FAIRMONT       CLEAR     69  64  84 N5        30.05R
GLENCOE        CLEAR     72  67  86 N3        30.04R
FARIBAULT      PTCLDY    66  64  94 CALM      30.04R
OWATONNA       PTCLDY    68  63  83 CALM      30.04R
WASECA         PTCLDY    66  63  88 N3        30.05R
ALBERT LEA     CLEAR     68  66  94 CALM      30.04R
$$
MNZ078>079-086>088-094>096-280400-
   Southeast Minnesota

CITY           SKY/WX    TMP DP  RH WIND       PRES   REMARKS
ROCHESTER      CLEAR     69  62  78 N5        30.04R
RED WING       CLEAR     70  63  78 N3        30.02R
STANTON        CLEAR     68  64  89 CALM      30.02R
DODGE CENTER   CLEAR     70  63  78 CALM      30.05R
WINONA         CLEAR     70  64  83 NW3       30.01R
AUSTIN         CLEAR     68  63  83 CALM      30.04R
PRESTON        CLEAR     68  61  76 N5        30.04R
$$
ABBREVIATIONS USED IN REMARKS
   TC - TEMPERATURES IN CELSIUS
  WCI - WIND CHILL INDEX
   HX - HEAT INDEX
  VSB - VISIBILITY
$$




USA.gov is the U.S. government's official web portal to all federal, state and local government web resources and services.